This is the latest recevied weather packets stored in our database for station/object SV9TNF-2. If no packets are shown the sender has not sent any weather packets the latest 10 day(s).
| Time | Temp. | Humidity | Pressure | Rain* | Wind** | Luminosity | Snow |
|---|---|---|---|---|---|---|---|
| 1777861211 | 15° C | 61% | 1024.4 hPa | 0 mm | 10.28 m/s, 0° | - | - |
| 1777860912 | 14.44° C | 58% | 1024.4 hPa | 0 mm | 8.94 m/s, 90° | - | - |
| 1777860611 | 15° C | 60% | 1023.7 hPa | 0 mm | 6.26 m/s, 270° | - | - |
| 1777860311 | 15° C | 61% | 1023.7 hPa | 0 mm | 8.05 m/s, 45° | - | - |
| 1777860011 | 15° C | 60% | 1023.7 hPa | 0 mm | 11.62 m/s, 40° | - | - |
| 1777859711 | 15° C | 59% | 1023.7 hPa | 0 mm | 12.07 m/s, 349° | - | - |
| 1777859411 | 15° C | 61% | 1023.7 hPa | 0 mm | 6.26 m/s, 82° | - | - |
| 1777859111 | 14.44° C | 57% | 1023.7 hPa | 0 mm | 18.78 m/s, 70° | - | - |
| 1777858811 | 14.44° C | 59% | 1023.7 hPa | 0 mm | 11.62 m/s, 45° | - | - |
| 1777858511 | 14.44° C | 60% | 1023.7 hPa | 0 mm | 8.49 m/s, 356° | - | - |
| 1777858211 | 14.44° C | 58% | 1023.7 hPa | 0 mm | 24.14 m/s, 16° | - | - |
| 1777857910 | 14.44° C | 60% | 1023.7 hPa | 0 mm | 8.49 m/s, 74° | - | - |
| 1777857610 | 14.44° C | 61% | 1023.7 hPa | 0 mm | 8.05 m/s, 92° | - | - |
| 1777857310 | 14.44° C | 59% | 1023.7 hPa | 0 mm | 8.05 m/s, 163° | - | - |
| 1777857010 | 15° C | 62% | 1024.4 hPa | 0 mm | 12.52 m/s, 27° | - | - |
| 1777856710 | 14.44° C | 57% | 1024.4 hPa | 0 mm | 12.96 m/s, 15° | - | - |
| 1777856410 | 15° C | 61% | 1023.7 hPa | 0 mm | 25.48 m/s, 19° | - | - |
| 1777856110 | 14.44° C | 61% | 1023.7 hPa | 0 mm | 19.22 m/s, 20° | - | - |
| 1777855810 | 15° C | 62% | 1023.7 hPa | 0 mm | 5.36 m/s, 87° | - | - |
| 1777855510 | 15° C | 61% | 1023.7 hPa | 0 mm | 13.86 m/s, 46° | - | - |
| 1777855210 | 15° C | 60% | 1023.7 hPa | 0 mm | 19.22 m/s, 30° | - | - |
| 1777854909 | 15° C | 61% | 1023.7 hPa | 0 mm | 21.01 m/s, 12° | - | - |
| 1777854609 | 15° C | 60% | 1023.7 hPa | 0 mm | 18.33 m/s, 293° | - | - |
| 1777854309 | 15° C | 60% | 1023.7 hPa | 0 mm | 17.43 m/s, 31° | - | - |
| 1777854009 | 15° C | 59% | 1023.7 hPa | 0 mm | 27.72 m/s, 10° | - | - |
* Rain latest hour (hover to see other rain measurements)
** Current wind speed in m/s (hover to see current wind gust speed)